{"data":{"norad_id":56702,"epoch":"2026-09-20T10:53:00.415392Z","epoch_age_seconds":118849,"freshness":"FRESH","line1":"1 56702U 23067Q   26263.45347703 -.00000081  00000+0  65793-5 0  9994","line2":"2 56702  43.0024 258.1488 0001088 256.6880 103.3850 15.27574698185405","mean_motion":15.27574698,"eccentricity":0.0001088,"inclination_deg":43.0024,"raan_deg":258.1488,"arg_perigee_deg":256.688,"mean_anomaly_deg":103.385,"bstar":6.5793e-6,"rev_number":18540,"period_min":94.267075900468,"perigee_km":482.31847340638,"apogee_km":483.81147095553,"semimajor_km":6861.201972181,"source":"CELESTRAK","updated_at":"2026-09-21T09:00:33.483459Z"}}